Weather Roundup
Issued by NWS

Home | Current Version | Previous Version | Graphics & Text | Print | Product List | Glossary Off
Versions: 1 2 3 4 5 6 7 8 9 10 11 12 13 14 15 16 17 18 19 20 21 22 23 24 25 26 27 28 29 30 31 32 33 34 35 36 37 38 39 40 41 42 43 44 45 46 47 48 49 50

623
NZUS93 KARX 091359
HRRWXR

CURRENT HOURLY OBSERVATIONS ACROSS
MUCH OF THE UPPER MISSISSIPPI VALLEY
NATIONAL WEATHER SERVICE LA CROSSE WI
800 AM CST FRI DEC 09 2016


...SOUTHEAST MINNESOTA...


CITY           SKY/WX    TMP DP  RH WIND       PRES   REMARKS
ROCHESTER      CLEAR      6   4  91 W6        30.52R WCI  -4
ROCHESTER/MAYO CLOUDY    10   8  91 W5        30.53S WCI   2
WINONA         CLOUDY    18  12  79 NW8       30.56R WCI   7
AUSTIN         FLURRIES  10   7  85 NW7       30.53R WCI   0
ALBERT LEA     CLOUDY    12   9  85 W5        30.53S WCI   4
DODGE CENTER   LGT SNOW   9   7  92 W5        30.52R VSB 3/4 WCI   0
PRESTON        LGT SNOW   8   6  89 W9        30.53R WCI  -5
OWATONNA       FLURRIES   7   3  85 W6        30.54R WCI  -3
FARIBAULT      NOT AVBL
$$

...ELSEWHERE IN MINNESOTA...


CITY           SKY/WX    TMP DP  RH WIND       PRES   REMARKS
MINNEAPOLIS    CLOUDY    14   9  80 SW8       30.55R HAZE    WCI   3
INTNL FALLS    LGT SNOW   5   0  79 W10       30.47R WCI -10
DULUTH         PTCLDY     8   3  80 NW8       30.44R WCI  -4
RED WING       FLURRIES  12   9  85 W6        30.54R WCI   3
REDWOOD FALLS  CLOUDY     1  -4  79 W7        30.58R WCI -12
MANKATO        CLEAR      4   0  83 W6        30.57S WCI  -7
WORTHINGTON    CLOUDY     1  -3  83 W6        30.54R WCI -10
FAIRMONT       CLEAR      5   1  83 NW9       30.57R WCI  -9
$$

...SOUTHWEST WISCONSIN...


CITY           SKY/WX    TMP DP  RH WIND       PRES   REMARKS
LA CROSSE      MOCLDY    20  11  68 NW10      30.54R WCI   9
PRAIRIE DU CHI CLEAR     14   9  80 W7        30.56R WCI   4
BOSCOBEL       CLOUDY    19  13  77 W6        30.55R WCI  11
LONE ROCK      NOT AVBL
PLATTEVILLE    PTCLDY    14  12  94 W8        30.51S WCI   2
FORT MC COY    CLOUDY    18  13  78 NW3       30.52R
MAUSTON-NEW LI SUNNY     16  11  81 W8        30.48S WCI   5
VIROQUA        CLOUDY    17  12  81 NW6       30.49R WCI   9
WIS DELLS      PTCLDY    17  10  77 NW8       30.47S WCI   6
$$

...ELSEWHERE IN WISCONSIN...


CITY           SKY/WX    TMP DP  RH WIND       PRES   REMARKS
MILWAUKEE      PTCLDY    23  14  68 W13       30.47R WCI  11
MADISON        MOCLDY    20  10  65 NW6       30.49R WCI  12
GREEN BAY      PTCLDY    22  14  71 NW8       30.43R WCI  12
EAU CLAIRE     NOT AVBL
BLACK RVR FLS  FAIR      12   7  80 CALM      30.52R
MEDFORD        CLOUDY     8   5  88 W6        30.42R WCI  -2
WAUSAU         PTCLDY    13   7  77 W8        30.42R WCI   2
WIS RAPIDS     CLEAR     12   8  84 NW7       30.48R WCI   1
MARSHFIELD     CLEAR      9   5  84 W8        30.44R WCI  -3
RICE LAKE      FLURRIES  13  10  87 W3        30.50S
$$

...NORTHEAST IOWA...


CITY           SKY/WX    TMP DP  RH WIND       PRES   REMARKS
WATERLOO       CLEAR      9   4  80 CALM      30.57S
DUBUQUE        CLEAR     12   9  87 NW8       30.52R WCI   0
DECORAH        CLEAR     10   9  92 CALM      30.53R
MASON CITY     CLEAR      8   4  83 NW7       30.56S WCI  -3
CHARLES CITY   PTCLDY     9   5  85 W5        30.56R WCI   0
OELWEIN        CLEAR      9   7  92 W9        30.56R WCI  -5
$$

...ELSEWHERE IN IOWA...


CITY           SKY/WX    TMP DP  RH WIND       PRES   REMARKS
DES MOINES     MOCLDY    10   5  80 W6        30.61  WCI   0
IOWA CITY      PTCLDY    13   8  81 W3        30.60F
FORT DODGE     PTCLDY     7   0  72 W6        30.59S WCI  -3
MARSHALLTOWN   CLEAR     10   7  87 NW7       30.57S WCI  -1
CEDAR RAPIDS   CLEAR     10   9  95 NW7       30.56S WCI  -1
$$

...NORTHERN ILLINOIS...


CITY           SKY/WX    TMP DP  RH WIND       PRES   REMARKS
CHICAGO-OHARE  FLURRIES  23  17  78 W12       30.50R WCI  12
CHICAGO-MIDWAY FLURRIES  24  16  71 W12       30.51R WCI  13
MOLINE         CLOUDY    18  10  71 W9        30.58R WCI   7
ROCKFORD       FLURRIES  22  16  78 W10       30.53S WCI  11
PEORIA         CLOUDY    21  14  74 W7        30.59R WCI  12
$$

NOTE: "FAIR" INDICATES FEW OR NO CLOUDS BELOW 12,000 FEET WITH NO
SIGNIFICANT WEATHER AND/OR OBSTRUCTIONS TO VISIBILITY. WIND
SPEEDS ARE IN MILES-PER-HOUR.




USA.gov is the U.S. government's official web portal to all federal, state and local government web resources and services.